Regional Weather Roundup
Issued by NWS

Home | Current Version | Previous Version | Graphics & Text | Print | Product List | Glossary On
Versions: 1 2 3 4 5 6 7 8 9 10 11 12 13 14 15 16 17 18 19 20 21 22 23 24 25 26 27 28 29 30 31 32 33 34 35 36 37 38 39 40 41 42 43 44 45 46 47 48 49 50
589
ASUS43 KMKX 181721
RWRWI

WISCONSIN REGIONAL WEATHER ROUNDUP
NATIONAL WEATHER SERVICE MILWAUKEE/SULLIVAN WI
1200 PM CDT FRI AUG 18 2017

NOTE: "FAIR" INDICATES FEW OR NO CLOUDS BELOW 12,000 FEET WITH NO
SIGNIFICANT WEATHER AND/OR OBSTRUCTIONS TO VISIBILITY.

WIZ001-002-006>008-014>016-023>028-181800-
NORTHWEST WISCONSIN

CITY           SKY/WX    TMP DP  RH WIND       PRES   REMARKS
SUPERIOR ARPT    N/A     69  62  78 W5        29.85S
ASHLAND        CLOUDY    68  59  73 VRB5      29.85S
HAYWARD        CLOUDY    67  57  70 N3        29.88R
SIREN          CLOUDY    65  60  84 W3        29.89S
CUMBERLAND     CLOUDY    64  59  82 NW3       29.89S
RICE LAKE      CLOUDY    68  60  74 W6        29.90S
CHETEK         CLOUDY    69  61  76 NW7       29.89R
LADYSMITH      PTSUNNY   67  58  70 NW7       29.89R
EAU CLAIRE     CLOUDY    70  61  73 W7        29.88R
MENOMONIE      CLOUDY    71  62  74 W7        29.89S
NEW RICHMOND   CLOUDY    68  62  82 W6        29.90S
OSCEOLA        CLOUDY    68  61  79 W5        29.93S
$$

WIZ003>005-009-010-017-018-181800-
NORTH CENTRAL WISCONSIN

CITY           SKY/WX    TMP DP  RH WIND       PRES   REMARKS
MANITOWISH WTR CLOUDY    65  59  82 NW8       29.84S
ARBOR VITAE    CLOUDY    65  57  75 NW10G20   29.83F
WOODRUFF       CLOUDY    65  57  75 NW10G20   29.83F
RHINELANDER    CLOUDY    65  59  81 NW10      29.84S
EAGLE RIVER    CLOUDY    64  54  69 NW10G16   29.82S
LAND O LAKES   CLOUDY    65  56  71 N10G21    29.83S
PHILLIPS       CLOUDY    65  58  78 NW8       29.85S
TOMAHAWK         N/A     65  56  72 NW13      29.84S
MEDFORD        PTSUNNY   66  57  71 NW9       29.86R
MERRILL        CLOUDY    66  59  77 NW10      29.84S
$$

WIZ029-030-035-036-043>047-181800-
CENTRAL WISCONSIN

CITY           SKY/WX    TMP DP  RH WIND       PRES   REMARKS
WAUSAU         CLOUDY    67  57  70 NW10      29.82F
MOSINEE        CLOUDY    66  59  77 NW12      29.85F
MARSHFIELD     CLOUDY    70  56  61 N12       29.85S
STEVENS POINT  CLOUDY    66  57  72 N7        29.85S
WAUPACA        CLOUDY    70  60  69 NW7       29.83S
WAUTOMA        CLOUDY    71  60  68 W13       29.85R
WISC RAPIDS    MOSUNNY   72  60  66 N9        29.86S
CAMP DOUGLAS   PTSUNNY   73  59  60 W12       29.87R
$$

WIZ011>013-019>022-031-037>040-048>050-181800-
NORTHEAST WISCONSIN

CITY           SKY/WX    TMP DP  RH WIND       PRES   REMARKS
ANTIGO         CLOUDY    64  58  82 NW10      29.83S
SHAWANO        CLOUDY    71  59  66 W7        29.80S
OCONTO         CLOUDY    69  57  65 NW13G18   29.78R
STURGEON BAY   CLOUDY    68  57  68 NW12G20   29.78R
GREEN BAY      CLOUDY    71  61  70 W14G20    29.80R
MANITOWOC      CLOUDY    70  59  68 NW12      29.79S
APPLETON       CLOUDY    70  55  60 NW14G20   29.81S
CLINTONVILLE   CLOUDY    68  55  64 NW12      29.81S
OSHKOSH        CLOUDY    68  59  73 NW13      29.81F
$$

WIZ032>034-041-042-053>061-181800-
SOUTHWEST WISCONSIN

CITY           SKY/WX    TMP DP  RH WIND       PRES   REMARKS
LA CROSSE      PTSUNNY   74  60  61 NW8       29.89F
SPARTA         CLOUDY    70  60  69 W8G17     29.90S
VIROQUA        CLOUDY    68  61  78 NW6       29.92S
BOSCOBEL       PTSUNNY   73  61  65 W7        29.91R
PRAIRIE DU CHI CLOUDY    72  56  58 N6        29.89F
PLATTEVILLE    CLOUDY    71  61  71 NW6       29.91F
$$

WIZ056-057-062-063-064-067-068-181800-
SOUTH CENTRAL WISCONSIN

CITY           SKY/WX    TMP DP  RH WIND       PRES   REMARKS
REEDSBURG      MOSUNNY   75  59  57 NW13      29.88R
BARABOO/DELLS  PTSUNNY   73  56  55 W9G18     29.87S
LONE ROCK      MOSUNNY   74  61  63 W10       29.89R
MINERAL POINT  SUNNY     72  61  68 NW7       29.92R
MADISON        PTSUNNY   73  59  61 NW8       29.86S
MIDDLETON      MOSUNNY   74  59  59 NW12G20   29.88S
WATERTOWN      PTSUNNY   71  61  71 W7        29.86R
MONROE         MOSUNNY   72  59  64 W9        29.90R
JANESVILLE     PTSUNNY   75  61  60 NW9       29.88R
$$

WIZ051-052-058>065-066-070>072-181800-
SOUTHEAST WISCONSIN

CITY           SKY/WX    TMP DP  RH WIND       PRES   REMARKS
MILWAUKEE      PTSUNNY   72  59  63 W13       29.85R
WAUKESHA       CLOUDY    68  57  68 NW9G15    29.87R
MILWAUKEE/TIMM CLOUDY    70  55  60 W12       29.86R
RACINE         CLOUDY    71  60  68 W10G20    29.87R
KENOSHA        CLOUDY    72  60  66 NW12      29.87R
FOND DU LAC    CLOUDY    69  57  65 NW14G21   29.83F
SHEBOYGAN      CLOUDY    69  61  75 NW13G18   29.81S
WEST BEND      CLOUDY    68  59  73 W8        29.84S
JUNEAU         CLOUDY    69  59  70 W3        29.86R
$$

LSZ147-162-181800-
LAKE SUPERIOR

STATION/POSITION TIME  TEMP    WIND        PRES    WAVE
                       AIR SEA DIR/SP/G            HT/PER
                 (UTC) (F)     (DEG/KT/KT) (MB)    (FT/S)
W MID LAKE BUOY  1650   61 60  260/ 10/ 12 1009.1R   2/ 5
DEVILS ISLAND    1700   62     230/ 10/ 13 1010.4R
SAXON HARBOR     1630   65     310/ 10/ 11 1010.2S
$$

LMZ867-665-643>646-181800-
LAKE MICHIGAN

STATION/POSITION TIME  TEMP    WIND        PRES    WAVE
                       AIR SEA DIR/SP/G            HT/PER
                 (UTC) (F)     (DEG/KT/KT) (MB)    (FT/S)
S GREEN BAY BUOY 1700   68 71  320/ 14/ 17 1008.3
N MID LAKE BUOY  1650   65 67  290/ 19/ 23 1006.7R   4/ 5
NORTHPORT PIER   1640   66     310/ 14/ 19 1007.1R
KEWAUNEE LAKESHO 1654   69     310/  9/ 14 1007.7R
SHEBOYGAN LAKESH 1700   69     300/ 17/ 20 1008.7F
PORT WASHINGTON  1640   71     310/  6/ 18 1010.8R
ATWATER BUOY     1639   69 70  310/ 10/ 12 1010.7R
MILWAUKEE LAKESH 1650   69     290/ 14/ 16   N/A
S MID LAKE BUOY  1650   69 71  310/ 16/ 19 1010.4S   3/ 5
KENOSHA   LAKESH 1700   71     300/ 14/ 18 1010.8
$$

TC  - TEMPERATURE IN CELSIUS
VSB - VISIBILITY IN STATUTE MILES
WCI - WIND CHILL INDEX
HX  - HEAT INDEX





USA.gov is the U.S. government's official web portal to all federal, state and local government web resources and services.